Погода в Ипатово

Россия / Ставропольский край     45°43′02″N   42°54′40″E
темп.,
°C
ветер,
м/с
пор.,
м/с
влажн.,
%
обл.,
%
осадки,
мм/ч
давл.,
гПа
погр.,
м
8 августа, пн
пн800:00+22юв22510 0.0 101211
03:00+21всв33520 0.0 101224
06:00+21в23450 0.0 101355
09:00+29всв57250 0.0 10141034
12:00+33в67190 0.0 10133106
15:00+34в46161 0.0 10123665
18:00+32вюв56211 0.0 10131256
21:00+25ю34340 0.0 101355
9 августа, вт
вт900:00+22ююз23430 0.0 101430
03:00+21ссв12470 0.0 101511
06:00+22ю12470 0.0 101515
09:00+29юв33290 0.0 1015850
12:00+33в48200 0.0 10143141
15:00+34в67190 0.0 10123229
18:00+32вюв68210 0.0 10122876
21:00+26вюв410290 0.0 1013192
10 августа, ср
ср1000:00+24юв48340 0.0 1013152
03:00+22вюв49390 0.0 1012171
06:00+22в410430 0.0 1013243
09:00+29вюв811310 0.0 10121352
12:00+33вюв912230 0.0 10112670
15:00+34в1011220 0.0 10092937
18:00+33вюв810240 0.0 10092778
21:00+28вюв815320 0.0 1010729
11 августа, чт
чт1100:00+25вюв715440 0.0 1010551
03:00+23в514530 0.0 1009392
06:00+23всв514540 0.0 1010477
09:00+31в914300 0.0 10101596
12:00+36вюв1012206 0.0 10082797
15:00+37в10102272 0.0 10073260
18:00+34в11122181 0.0 10091690
21:00+30в916287 0.0 1011862
12 августа, пт
пт1200:00+27в7163374 0.0 1011600
03:00+25в6154763 0.0 1012582
06:00+25в5144052 0.0 1013616
09:00+32вюв913235 0.0 10131598
12:00+36в1012165 0.0 10122822
15:00+38в1011131 0.0 10113150
18:00+35вюв1011150 0.0 10112277
21:00+30вюв815220 0.0 1013653